Timeline UpdatesTrip UpdatesNews PostsPvt PostsTravel TipsAdmin PostsConv PostsFollowed PostsChat RequestsBlog PostsPNR Posts

Disclaimer
Search
 
 
Wed Sep 3, 2014 12:37:37 ISTHomeTrainsΣChainsAtlasPNRForumGalleryNewsFAQTripsMembersLoginFeedback
No Recent News for this Train
Other Trains in the News **new
Latest...
..
Tue Aug 05, 2014 (12:52PM)
⇐ Return Journey: Train# 57550

57549/Hyderabad Aurangabad Passenger

Time-Table HAS CHANGED. update tt
Yesterday (12:20AM)
Change Departure Station:
Change Arrival Station:
Post a Train Travel TipPost a Train Travel Tip **new
Post a Comment/Question/Picture/VideoPost a Comment/Question/Picture/Video
Pantry/Catering
✕ NO Pantry Car
✕ NO Catering
Loco/Rake Reversals
PBN/Parbhani Junction (3); PRLI/Parli Vaijnath (3);
RSA - Rake Sharing
57549=>57550=>57547=>57548=>57549
Rake/Coach Composition
3 Sleeper and 7 Gen and 2 SLR.; Entry# 780685 By:shreyaskp007
Loco
MLY WDM 2A
News    PNR    Forum    Time-Table    Availability    Fare Chart    Map    Arr/Dep History    Trips    Gallery    ΣChains    X/O    Timeline    
Travel Time: 2h 45m    13 halts    Distance: 119 km    Avg Speed: 43 km/hr
Type: Passenger
Zone: SCR/South Central
Departs @ 21:35
Platform# 1
SMTWTFS
Hyderabad Deccan Nampally/HYB 
Arrives @ 00:20 +1 night
Platform# ???
SMTWTFS
Kohir Deccan/KOHR 

13 halts. 23 intermediate Stations between Hyderabad Deccan Nampally and Kohir Deccan

Show ALL intermediate Stations  Show Old Time-Table

#CodeStation NameX/OArrivesAvgDepartsAvgHaltPFDay#KmSpeedElevZoneAddress
1HYB»Hyderabad Deccan Nampally (6)»  -21:35-110.028510mSCRHyderabad, Telangana
2KQDKhairatabad (2)  21:40-21:41-1m--12.333518mSCRHyderabad, Telangana
3BMTBegumpet (2)  21:49 21:47-21:50 21:48-1m215.720531mSCRHyderabad, Telangana
4SNFSanathnagar (3)X  21:59-22:00-1m219.362547mSCRHyderabad, Telangana
5HFZHafizpet (2)  22:09-22:10-1m2118.652590mSCRHyderabad, Telangana
6LPILingampalli (6)  22:21 22:16-22:22 22:17-1m1123.849558mSCRRangareddy Dist., Telangana
7NPLNagalapalle (2)X  22:29-22:30-1m2133.660561mSCRMedak Dist., Telangana
8SKPShankarpalli (2)  22:41-22:42-1m2144.546574mSCRRangareddy Dist., Telangana
9RPKRavulapalli Kalan (2)  22:49-22:50-1m2149.892582mSCRRangareddy Dist., Telangana
10GGDGullagudaO  22:54-22:55-1m--156.046599mSCRRangareddy Dist., Telangana
11CTFChitgidda  23:04-23:05-1m--162.942607mSCRRangareddy Dist., Telangana
12VKBVikarabad Junction (3)  23:20-23:30-10m2173.369633mSCRRangareddy Dist., Telangana
13SSPDSadashivapet Road  23:49-23:50-1m--195.157632mSCRRangareddy Dist., Telangana
14MRFMarpalli  00:05-00:06-1m--2109.242628mSCRRangareddu Dist., Telangana
15KOHR•Kohir Deccan (1)•  00:20-00:21-1m--2118.9104629mSCRMedak Dist., Telangana
16ZBZahirabad (1)X  00:37 00:29-00:38 00:30-1m12132.835634mSCRDist. Medak, Telangana
17BIDRBidar (3)X  01:25-01:30-5m--2164.678673mSCRBidar ph.no 08482 226404, Karnataka
18BHLKBhalki  01:58 01:59-02:00-2 1m--2202.198607mSCRBhalki ph.no 08484 262209, Karnataka
19KCPKalgupur  02:09-02:10-1m--2216.762554mSCRHulsoor, Karnataka
20KMNRKamalnagar  02:19-02:20-1m--2226.161570mSCRKamal Nagar, Karnataka
21UDGRUdgir (1)  02:38 02:39-02:40-2 1m12245.382649mSCRUdgir ph.no 02385 256022, Maharashtra
22KTKRKumtha Khurd  02:49-02:50-1m--2257.67641mSCRState Highway 217, Maharashtra
23HERHerX  03:29-03:30-1m--2261.922646mSCRLatur, Maharashtra
24AMBRAmbika Rohina  03:39-03:40-1m--2265.325657mSCRAmbika Devi Rd, Maharashtra
25NGHWNageshwadi Halt  03:49-03:50-1m--2269.031657mSCRNageshwadi Halt, Maharashtra
26CKXChakur  03:59-04:00-1m--2273.628645mSCRMSH3, Maharashtra
27LTRRLatur Road Junction (3)O  04:10-04:11-1m12278.335648mSCRLatur Road ph.no 02381 258044, Maharashtra
28WDLNWadwal Nagnath (1)X  04:19-04:20-1m12282.946638mSCRWadwal Nagnath, Maharashtra
29JOAJanwal (1)X  04:29-04:30-1m12289.957645mSCRLatur, Maharashtra
30KRPRKarepur (1)O  04:39-04:40-1m12298.59620mSCRState Highway 168, Maharashtra
31PNFPangaon (1)  05:29-05:30-1m12305.754637mSCRPangaon, Maharashtra
32MRTYMurti (1)  05:39-05:40-1m12313.911624mSCRState Highway 169, Maharashtra
33GTUGhat Nandur (1)O  06:04-06:05-1m12318.228634mSCRGhat Nadur, Maharashtra
34PRLIParli Vaijnath (3)06:55-07:15-20m--2341.482462mSCRParli-Vaijnath, Maharashtra
35UKHUkhali  07:24-07:25-1m--2353.756409mSCRState Highway 169, Maharashtra
36WDNVadgaon new halt!!  07:29-07:30-1m--2357.560398mSCRWadgaon, Maharashtra
37GNHGangakher (2)X  07:44-07:45-1m--2371.442392mSCRState Highway 217, Maharashtra
38DNDIDhondi (1)X  08:04-08:05-1m--2384.560403mSCRState Highway 148, Maharashtra
39PKNSPokharni Narasimha (2)X  08:09-08:10-1m--2388.543417mSCRPokharni Nrsnha, Maharashtra
40SNGRSanganapur  08:19-08:20-1m--2395.013420mSCRState Highway 148, Maharashtra
41PBNParbhani Junction (3)08:50 09:10-09:00 09:20-10m22405.752414mSCRParbhani 431401, Maharashtra
42PGPergaon  09:14 09:34-09:15 09:35-1m--2417.891441mSCRParbhani, Maharashtra
43DAVDevalgaon AvcharX  09:24 09:39-09:25 09:40-1m--2423.862425mSCRParbhani, Maharashtra
44MVOManwath Road (2)X  09:34 09:49-09:35 09:50-1m--2433.136421mSCRParbhani, Maharashtra
45DGPPDhengli Pimpalgaon  09:44 09:59-09:45 10:00-1m--2438.564407mSCRSatuna, Maharashtra
46SELUSelu (2)  09:59 10:09-10:00 10:10-1m--2448.168436mSCRParbhani, Maharashtra
47SCOSatunaX  10:09 10:19-10:10 10:20-1m--2458.353440mSCRSatona, Maharashtra
48UPRUsmanpur  10:19 10:29-10:20 10:30-1m--2466.263444mSCRUsmanpur, Maharashtra
49PTUPartur (2)  10:29 10:39-10:30 10:40-1m--2475.748465mSCRJalna, Maharashtra
50PDGParadgaon  10:39 10:49-10:40 10:50-1m--2482.994454mSCRUsmanpur, Maharashtra
51RNERanjani  10:49 10:54-10:50 10:55-1m--2489.175469mSCRJalna, Maharashtra
52KODIKodi  10:59 11:04-11:00 11:05-1m--2500.466473mSCRRanjani, Maharashtra
53SVDSarwari  11:14-11:15-1m--2510.323493mSCRRanjani, Maharashtra
54JJalna (3)  11:40-11:45 11:42-5 2m--2520.152502mSCRJalna, Maharashtra
55BDUBadnapurX  12:04-12:05-1m--2539.049523mSCRJalna, Maharashtra
56KMVKarmad  12:24-12:25-1m--2554.517567mSCRAurangabad, Maharashtra
57CTHChikalthanX  12:39-12:40-1m--2558.495582mSCRAurangabad, Maharashtra
58MKDDMukundwadi Halt (1)  12:49-12:50-1m12572.77580mSCRAurangabad, Maharashtra
59AWBAurangabad (5)  14:15--32582.7-561mSCRAurangabad 431001, Maharashtra
Scroll to Top
Scroll to Bottom